QPF
0.00 0.00 0.01 0.01 0.01 0.01 0.00 0.00 0.01 0.01 0.01 0.01 0.01 0.01 0.00 0.00 0.00 0.00 0.00 0.00 0.00 0.00 0.00 0.01 0.00 0.00 0.00 0.00 0.00 0.00 0.00 0.00 0.00 0.00 0.00 0.00 0.00 0.01 0.01 0.01 0.02 0.02 0.02
0.00 0.00 0.01 0.02 0.02 0.01 0.00 0.00 0.00 0.00 0.00 0.00 0.00 0.00 0.00 0.00 0.01 0.00 0.01 0.00 0.00 0.00 0.00 0.00 0.00 0.00 0.00 0.00 0.00 0.00 0.00 0.00 0.00 0.00 0.00 0.01 0.01 0.02 0.02 0.02 0.03 0.04 0.02
0.01 0.01 0.01 0.02 0.02 0.01 0.01 0.00 0.00 0.00 0.00 0.00 0.00 0.00 0.00 0.00 0.00 0.00 0.00 0.00 0.01 0.01 0.01 0.00 0.00 0.00 0.00 0.00 0.00 0.00 0.00 0.00 0.01 0.01 0.01 0.03 0.02 0.02 0.03 0.03 0.03 0.03 0.03
0.01 0.02 0.02 0.02 0.02 0.01 0.01 0.01 0.00 0.00 0.01 0.00 0.00 0.00 0.00 0.00 0.00 0.00 0.00 0.00 0.00 0.00 0.00 0.01 0.01 0.01 0.01 0.00 0.00 0.00 0.01 0.01 0.01 0.01 0.01 0.01 0.01 0.02 0.02 0.03 0.03 0.03 0.04
0.02 0.02 0.02 0.03 0.02 0.02 0.02 0.02 0.01 0.01 0.01 0.00 0.01 0.01 0.00 0.00 0.00 0.00 0.01 0.01 0.01 0.01 0.01 0.01 0.01 0.01 0.01 0.01 0.01 0.01 0.01 0.01 0.01 0.01 0.02 0.03 0.04 0.04 0.03 0.04 0.04 0.03 0.03
0.03 0.03 0.04 0.04 0.04 0.04 0.03 0.02 0.02 0.01 0.01 0.01 0.01 0.01 0.01 0.00 0.01 0.01 0.01 0.01 0.01 0.01 0.01 0.01 0.01 0.01 0.02 0.01 0.01 0.01 0.01 0.01 0.01 0.01 0.03 0.03 0.05 0.05 0.05 0.06 0.05 0.04 0.03
0.03 0.05 0.05 0.06 0.06 0.04 0.04 0.03 0.02 0.01 0.01 0.01 0.01 0.01 0.01 0.01 0.01 0.01 0.01 0.01 0.02 0.02 0.02 0.02 0.01 0.01 0.01 0.01 0.01 0.01 0.01 0.01 0.01 0.01 0.01 0.02 0.03 0.04 0.07 0.08 0.08 0.06 0.04
0.04 0.04 0.05 0.06 0.05 0.05 0.04 0.03 0.02 0.01 0.01 0.02 0.02 0.02 0.02 0.02 0.02 0.02 0.02 0.02 0.02 0.02 0.02 0.02 0.02 0.02 0.01 0.01 0.01 0.01 0.01 0.01 0.01 0.01 0.01 0.01 0.01 0.03 0.08 0.11 0.12 0.11 0.08
0.03 0.03 0.04 0.04 0.05 0.04 0.04 0.02 0.01 0.01 0.02 0.02 0.01 0.01 0.01 0.01 0.02 0.01 0.01 0.01 0.01 0.02 0.02 0.02 0.02 0.03 0.03 0.03 0.03 0.03 0.02 0.02 0.02 0.02 0.01 0.02 0.01 0.03 0.08 0.11 0.12 0.14 0.11
0.03 0.03 0.04 0.05 0.04 0.03 0.02 0.01 0.01 0.01 0.01 0.01 0.01 0.01 0.01 0.01 0.01 0.01 0.01 0.01 0.01 0.02 0.02 0.02 0.03 0.03 0.02 0.02 0.03 0.03 0.03 0.02 0.01 0.02 0.02 0.02 0.02 0.03 0.07 0.10 0.13 0.16 0.13
0.03 0.02 0.03 0.03 0.03 0.02 0.01 0.01 0.01 0.01 0.00 0.01 0.01 0.01 0.01 0.02 0.02 0.02 0.01 0.01 0.01 0.03 0.03 0.03 0.03 0.03 0.03 0.03 0.03 0.03 0.03 0.02 0.02 0.03 0.03 0.02 0.03 0.05 0.08 0.10 0.12 0.15 0.15
0.02 0.02 0.03 0.03 0.02 0.02 0.02 0.02 0.02 0.01 0.01 0.00 0.01 0.01 0.02 0.02 0.02 0.02 0.01 0.01 0.02 0.03 0.03 0.03 0.02 0.02 0.02 0.04 0.05 0.03 0.03 0.03 0.03 0.02 0.02 0.02 0.04 0.05 0.07 0.08 0.09 0.11 0.13
0.03 0.03 0.03 0.03 0.02 0.02 0.02 0.02 0.02 0.02 0.01 0.00 0.01 0.01 0.03 0.02 0.02 0.02 0.03 0.03 0.03 0.03 0.03 0.03 0.03 0.02 0.02 0.03 0.03 0.04 0.03 0.03 0.04 0.03 0.03 0.02 0.04 0.05 0.06 0.06 0.08 0.09 0.13
0.02 0.02 0.02 0.02 0.02 0.02 0.02 0.02 0.01 0.01 0.01 0.01 0.01 0.01 0.02 0.02 0.02 0.02 0.03 0.04 0.04 0.05 0.05 0.05 0.04 0.03 0.03 0.02 0.01 0.01 0.01 0.02 0.02 0.03 0.03 0.02 0.03 0.04 0.05 0.07 0.09 0.09 0.13
0.02 0.02 0.01 0.02 0.02 0.02 0.02 0.02 0.01 0.02 0.02 0.02 0.02 0.02 0.03 0.03 0.04 0.04 0.03 0.03 0.04 0.04 0.05 0.04 0.03 0.03 0.02 0.02 0.02 0.01 0.01 0.02 0.02 0.03 0.03 0.02 0.03 0.04 0.05 0.07 0.11 0.12 0.14
0.02 0.01 0.01 0.02 0.02 0.02 0.02 0.02 0.02 0.02 0.02 0.02 0.02 0.03 0.03 0.04 0.05 0.05 0.04 0.03 0.03 0.04 0.04 0.04 0.02 0.02 0.02 0.02 0.01 0.02 0.02 0.02 0.02 0.02 0.03 0.02 0.03 0.04 0.05 0.05 0.09 0.13 0.14
0.03 0.03 0.03 0.03 0.02 0.02 0.02 0.03 0.03 0.02 0.02 0.02 0.03 0.03 0.04 0.04 0.04 0.04 0.04 0.04 0.04 0.03 0.03 0.03 0.02 0.02 0.01 0.01 0.01 0.02 0.03 0.03 0.02 0.02 0.02 0.02 0.02 0.03 0.04 0.05 0.08 0.11 0.13
0.04 0.05 0.05 0.04 0.03 0.03 0.04 0.04 0.04 0.03 0.03 0.03 0.03 0.04 0.04 0.03 0.03 0.03 0.03 0.04 0.04 0.03 0.02 0.02 0.02 0.02 0.02 0.01 0.02 0.01 0.02 0.02 0.02 0.02 0.01 0.01 0.02 0.03 0.04 0.04 0.06 0.08 0.10
0.03 0.06 0.07 0.06 0.05 0.06 0.07 0.07 0.06 0.06 0.06 0.06 0.06 0.05 0.04 0.04 0.04 0.04 0.03 0.04 0.04 0.03 0.02 0.02 0.02 0.03 0.03 0.02 0.02 0.02 0.02 0.02 0.02 0.02 0.01 0.01 0.01 0.02 0.02 0.02 0.03 0.05 0.06
0.03 0.05 0.06 0.07 0.07 0.08 0.08 0.08 0.08 0.09 0.11 0.12 0.11 0.09 0.06 0.06 0.06 0.06 0.04 0.04 0.03 0.03 0.03 0.02 0.02 0.03 0.03 0.03 0.02 0.02 0.04 0.04 0.04 0.02 0.01 0.01 0.02 0.01 0.01 0.02 0.03 0.04 0.05
0.03 0.04 0.05 0.06 0.06 0.07 0.09 0.10 0.10 0.11 0.11 0.12 0.12 0.10 0.08 0.06 0.06 0.05 0.04 0.03 0.02 0.02 0.02 0.03 0.03 0.02 0.03 0.03 0.03 0.02 0.02 0.03 0.04 0.04 0.03 0.03 0.02 0.01 0.01 0.02 0.03 0.03 0.04
0.04 0.06 0.06 0.07 0.08 0.09 0.10 0.12 0.13 0.12 0.10 0.09 0.09 0.08 0.07 0.06 0.06 0.05 0.03 0.03 0.03 0.02 0.03 0.03 0.03 0.03 0.03 0.03 0.03 0.02 0.02 0.02 0.02 0.03 0.03 0.03 0.03 0.02 0.02 0.02 0.03 0.04 0.05
0.06 0.05 0.05 0.07 0.09 0.11 0.12 0.12 0.11 0.09 0.07 0.05 0.06 0.05 0.05 0.04 0.04 0.03 0.02 0.03 0.03 0.03 0.03 0.03 0.03 0.04 0.04 0.03 0.04 0.04 0.03 0.03 0.02 0.02 0.02 0.03 0.03 0.04 0.03 0.03 0.02 0.03 0.04
0.06 0.04 0.03 0.05 0.08 0.09 0.09 0.08 0.08 0.06 0.05 0.04 0.04 0.04 0.04 0.03 0.04 0.03 0.02 0.02 0.02 0.03 0.04 0.05 0.06 0.07 0.07 0.05 0.05 0.05 0.04 0.04 0.04 0.03 0.03 0.03 0.04 0.04 0.04 0.04 0.04 0.03 0.04
0.04 0.03 0.03 0.04 0.05 0.05 0.05 0.06 0.06 0.06 0.05 0.05 0.04 0.03 0.03 0.03 0.03 0.02 0.02 0.01 0.02 0.03 0.05 0.07 0.11 0.11 0.08 0.04 0.04 0.04 0.04 0.04 0.05 0.05 0.05 0.05 0.07 0.08 0.08 0.07 0.06 0.05 0.04
0.02 0.03 0.03 0.03 0.03 0.05 0.05 0.05 0.05 0.06 0.06 0.06 0.05 0.04 0.03 0.03 0.03 0.02 0.02 0.01 0.01 0.02 0.02 0.02 0.02 0.03 0.03 0.03 0.04 0.05 0.04 0.04 0.05 0.06 0.06 0.06 0.07 0.10 0.12 0.11 0.08 0.06 0.05
MSLP
1008.89 1009.20 1009.68 1010.24 1010.81 1011.31 1011.69 1011.92 1012.04 1012.10 1012.17 1012.31 1012.57 1012.94 1013.38 1013.85 1014.29 1014.64 1014.89 1015.03 1015.11 1015.16 1015.23 1015.32 1015.45 1015.59 1015.72 1015.79 1015.81 1015.76 1015.68 1015.59 1015.54 1015.57 1015.67 1015.84 1016.07 1016.31 1016.55 1016.75 1016.91 1017.04 1017.17
1008.85 1009.19 1009.69 1010.28 1010.88 1011.40 1011.80 1012.04 1012.17 1012.23 1012.29 1012.44 1012.69 1013.06 1013.51 1013.99 1014.42 1014.77 1015.00 1015.12 1015.18 1015.22 1015.27 1015.38 1015.52 1015.70 1015.86 1015.97 1016.02 1015.99 1015.91 1015.83 1015.76 1015.76 1015.85 1016.01 1016.23 1016.47 1016.71 1016.91 1017.09 1017.22 1017.34
1008.85 1009.20 1009.71 1010.32 1010.95 1011.51 1011.95 1012.23 1012.39 1012.47 1012.55 1012.70 1012.95 1013.30 1013.73 1014.17 1014.58 1014.89 1015.09 1015.19 1015.23 1015.26 1015.32 1015.43 1015.60 1015.81 1016.00 1016.15 1016.21 1016.20 1016.12 1016.02 1015.93 1015.90 1015.95 1016.08 1016.27 1016.50 1016.73 1016.94 1017.12 1017.27 1017.40
1008.91 1009.25 1009.76 1010.39 1011.06 1011.66 1012.15 1012.48 1012.68 1012.80 1012.90 1013.05 1013.28 1013.61 1014.00 1014.40 1014.76 1015.03 1015.19 1015.27 1015.30 1015.32 1015.39 1015.52 1015.71 1015.94 1016.16 1016.32 1016.39 1016.37 1016.28 1016.15 1016.03 1015.96 1015.97 1016.06 1016.22 1016.42 1016.64 1016.85 1017.04 1017.20 1017.35
1009.05 1009.36 1009.87 1010.52 1011.21 1011.85 1012.39 1012.77 1013.02 1013.17 1013.29 1013.43 1013.65 1013.94 1014.29 1014.64 1014.95 1015.18 1015.31 1015.37 1015.39 1015.42 1015.50 1015.65 1015.85 1016.09 1016.31 1016.46 1016.53 1016.49 1016.37 1016.21 1016.05 1015.94 1015.91 1015.97 1016.10 1016.28 1016.48 1016.69 1016.88 1017.06 1017.23
1009.25 1009.55 1010.05 1010.69 1011.40 1012.07 1012.63 1013.05 1013.33 1013.51 1013.64 1013.78 1013.98 1014.24 1014.54 1014.85 1015.12 1015.32 1015.44 1015.49 1015.52 1015.56 1015.65 1015.80 1016.01 1016.24 1016.44 1016.56 1016.60 1016.52 1016.37 1016.17 1015.98 1015.85 1015.79 1015.83 1015.94 1016.10 1016.29 1016.49 1016.69 1016.88 1017.08
1009.49 1009.78 1010.27 1010.91 1011.61 1012.28 1012.85 1013.28 1013.57 1013.75 1013.88 1014.02 1014.20 1014.44 1014.71 1015.00 1015.24 1015.43 1015.54 1015.60 1015.63 1015.68 1015.78 1015.93 1016.13 1016.33 1016.50 1016.59 1016.57 1016.46 1016.27 1016.04 1015.83 1015.69 1015.63 1015.66 1015.77 1015.93 1016.12 1016.32 1016.51 1016.70 1016.90
1009.74 1010.03 1010.51 1011.13 1011.81 1012.46 1013.01 1013.42 1013.69 1013.87 1013.99 1014.12 1014.29 1014.52 1014.78 1015.04 1015.28 1015.46 1015.58 1015.64 1015.69 1015.75 1015.85 1016.00 1016.17 1016.34 1016.46 1016.50 1016.44 1016.28 1016.06 1015.82 1015.61 1015.47 1015.43 1015.48 1015.61 1015.78 1015.98 1016.17 1016.35 1016.53 1016.71
1009.96 1010.27 1010.75 1011.34 1011.98 1012.57 1013.07 1013.44 1013.68 1013.83 1013.95 1014.07 1014.24 1014.46 1014.72 1014.99 1015.22 1015.41 1015.52 1015.60 1015.65 1015.72 1015.81 1015.94 1016.09 1016.22 1016.30 1016.29 1016.18 1015.99 1015.75 1015.51 1015.31 1015.20 1015.19 1015.28 1015.44 1015.64 1015.85 1016.03 1016.19 1016.34 1016.49
1010.13 1010.47 1010.94 1011.51 1012.09 1012.62 1013.05 1013.35 1013.55 1013.67 1013.77 1013.90 1014.07 1014.30 1014.57 1014.84 1015.08 1015.26 1015.39 1015.46 1015.51 1015.57 1015.66 1015.77 1015.89 1015.98 1016.02 1015.97 1015.83 1015.62 1015.37 1015.14 1014.96 1014.89 1014.93 1015.07 1015.27 1015.50 1015.71 1015.88 1016.02 1016.12 1016.22
1010.24 1010.61 1011.08 1011.61 1012.13 1012.59 1012.94 1013.18 1013.33 1013.43 1013.52 1013.65 1013.84 1014.09 1014.37 1014.65 1014.89 1015.07 1015.18 1015.25 1015.29 1015.34 1015.40 1015.49 1015.59 1015.66 1015.67 1015.59 1015.43 1015.21 1014.97 1014.75 1014.60 1014.57 1014.65 1014.83 1015.06 1015.31 1015.53 1015.69 1015.79 1015.84 1015.89
1010.28 1010.69 1011.16 1011.66 1012.12 1012.50 1012.78 1012.97 1013.08 1013.16 1013.25 1013.40 1013.61 1013.88 1014.17 1014.46 1014.70 1014.87 1014.97 1015.01 1015.03 1015.06 1015.11 1015.17 1015.25 1015.30 1015.29 1015.21 1015.04 1014.82 1014.58 1014.38 1014.26 1014.25 1014.36 1014.56 1014.82 1015.08 1015.29 1015.43 1015.49 1015.50 1015.48
1010.28 1010.72 1011.18 1011.64 1012.05 1012.37 1012.60 1012.75 1012.84 1012.92 1013.03 1013.20 1013.43 1013.72 1014.03 1014.32 1014.56 1014.71 1014.79 1014.81 1014.81 1014.81 1014.83 1014.88 1014.94 1014.98 1014.96 1014.88 1014.71 1014.50 1014.27 1014.08 1013.96 1013.96 1014.08 1014.29 1014.54 1014.79 1014.99 1015.11 1015.13 1015.09 1015.02
1010.26 1010.70 1011.15 1011.58 1011.95 1012.24 1012.44 1012.57 1012.66 1012.76 1012.89 1013.09 1013.36 1013.67 1013.99 1014.28 1014.51 1014.65 1014.71 1014.71 1014.67 1014.65 1014.65 1014.68 1014.72 1014.75 1014.73 1014.64 1014.49 1014.28 1014.05 1013.86 1013.74 1013.74 1013.83 1014.02 1014.25 1014.47 1014.64 1014.72 1014.72 1014.64 1014.53
1010.22 1010.65 1011.08 1011.49 1011.84 1012.12 1012.32 1012.47 1012.58 1012.71 1012.88 1013.11 1013.40 1013.72 1014.05 1014.35 1014.56 1014.70 1014.74 1014.72 1014.67 1014.62 1014.60 1014.61 1014.63 1014.64 1014.62 1014.53 1014.38 1014.17 1013.95 1013.74 1013.61 1013.57 1013.63 1013.77 1013.95 1014.13 1014.26 1014.31 1014.28 1014.18 1014.05
1010.18 1010.58 1010.99 1011.38 1011.73 1012.03 1012.26 1012.45 1012.61 1012.78 1012.98 1013.24 1013.55 1013.88 1014.21 1014.50 1014.71 1014.84 1014.88 1014.86 1014.80 1014.73 1014.69 1014.68 1014.68 1014.67 1014.63 1014.53 1014.38 1014.17 1013.93 1013.72 1013.55 1013.47 1013.48 1013.56 1013.68 1013.80 1013.88 1013.90 1013.84 1013.73 1013.59
1010.14 1010.50 1010.88 1011.27 1011.65 1011.98 1012.27 1012.52 1012.74 1012.95 1013.19 1013.47 1013.78 1014.10 1014.42 1014.70 1014.92 1015.05 1015.10 1015.08 1015.02 1014.96 1014.90 1014.86 1014.83 1014.80 1014.73 1014.62 1014.45 1014.23 1013.99 1013.75 1013.56 1013.43 1013.38 1013.39 1013.44 1013.50 1013.53 1013.51 1013.43 1013.31 1013.17
1010.10 1010.41 1010.78 1011.17 1011.58 1011.97 1012.33 1012.65 1012.93 1013.20 1013.46 1013.74 1014.04 1014.34 1014.64 1014.91 1015.12 1015.26 1015.33 1015.34 1015.30 1015.24 1015.17 1015.11 1015.06 1014.99 1014.89 1014.75 1014.56 1014.33 1014.08 1013.83 1013.60 1013.44 1013.33 1013.28 1013.26 1013.25 1013.22 1013.16 1013.07 1012.94 1012.80
1010.07 1010.34 1010.69 1011.10 1011.54 1011.99 1012.42 1012.81 1013.16 1013.46 1013.74 1014.01 1014.28 1014.55 1014.82 1015.07 1015.28 1015.44 1015.54 1015.58 1015.57 1015.53 1015.47 1015.39 1015.30 1015.19 1015.06 1014.89 1014.68 1014.44 1014.18 1013.92 1013.68 1013.48 1013.32 1013.21 1013.13 1013.05 1012.97 1012.87 1012.75 1012.62 1012.48
1010.05 1010.29 1010.62 1011.04 1011.52 1012.02 1012.52 1012.98 1013.37 1013.71 1013.99 1014.24 1014.48 1014.70 1014.93 1015.16 1015.37 1015.54 1015.68 1015.76 1015.80 1015.78 1015.73 1015.65 1015.54 1015.40 1015.23 1015.03 1014.80 1014.55 1014.29 1014.03 1013.78 1013.56 1013.36 1013.20 1013.06 1012.92 1012.79 1012.64 1012.49 1012.34 1012.20
1010.08 1010.29 1010.60 1011.02 1011.51 1012.06 1012.60 1013.11 1013.55 1013.90 1014.19 1014.41 1014.60 1014.78 1014.97 1015.17 1015.37 1015.57 1015.74 1015.87 1015.95 1015.98 1015.95 1015.87 1015.75 1015.58 1015.39 1015.17 1014.93 1014.68 1014.42 1014.16 1013.91 1013.68 1013.46 1013.25 1013.05 1012.86 1012.67 1012.48 1012.29 1012.12 1011.97
1010.17 1010.35 1010.64 1011.04 1011.53 1012.09 1012.65 1013.19 1013.65 1014.03 1014.30 1014.51 1014.66 1014.80 1014.95 1015.12 1015.32 1015.53 1015.74 1015.91 1016.04 1016.11 1016.11 1016.04 1015.92 1015.75 1015.54 1015.32 1015.07 1014.82 1014.57 1014.32 1014.08 1013.83 1013.59 1013.35 1013.11 1012.86 1012.61 1012.37 1012.15 1011.95 1011.78
1010.34 1010.50 1010.75 1011.11 1011.57 1012.11 1012.68 1013.22 1013.70 1014.08 1014.35 1014.54 1014.67 1014.78 1014.90 1015.05 1015.24 1015.46 1015.69 1015.90 1016.07 1016.17 1016.21 1016.16 1016.05 1015.89 1015.68 1015.46 1015.22 1014.98 1014.75 1014.51 1014.27 1014.02 1013.76 1013.49 1013.20 1012.91 1012.61 1012.31 1012.04 1011.81 1011.62
1010.62 1010.75 1010.95 1011.25 1011.66 1012.15 1012.69 1013.22 1013.69 1014.08 1014.36 1014.55 1014.67 1014.76 1014.86 1015.00 1015.17 1015.39 1015.63 1015.86 1016.05 1016.19 1016.25 1016.23 1016.14 1015.99 1015.80 1015.59 1015.37 1015.14 1014.92 1014.70 1014.46 1014.21 1013.94 1013.63 1013.31 1012.96 1012.61 1012.27 1011.96 1011.69 1011.47
1010.99 1011.10 1011.24 1011.47 1011.80 1012.23 1012.71 1013.21 1013.68 1014.06 1014.35 1014.55 1014.67 1014.77 1014.86 1014.98 1015.14 1015.35 1015.58 1015.81 1016.01 1016.15 1016.23 1016.23 1016.16 1016.03 1015.86 1015.67 1015.46 1015.26 1015.05 1014.84 1014.61 1014.35 1014.06 1013.73 1013.38 1012.99 1012.60 1012.22 1011.86 1011.55 1011.30
1011.44 1011.52 1011.61 1011.76 1012.01 1012.36 1012.78 1013.24 1013.67 1014.06 1014.36 1014.57 1014.71 1014.81 1014.90 1015.01 1015.15 1015.34 1015.54 1015.75 1015.93 1016.07 1016.15 1016.15 1016.09 1015.98 1015.83 1015.66 1015.48 1015.29 1015.09 1014.88 1014.65 1014.39 1014.09 1013.74 1013.36 1012.95 1012.52 1012.11 1011.71 1011.37 1011.09
Thickness
5813 5807 5793 5789 5785 5783 5781 5779 5777 5774 5772 5769 5767 5764 5761 5758 5756 5754 5752 5750 5749 5747 5746 5745 5743 5743 5743 5742 5741 5741 5741 5740 5740 5740 5739 5738 5738 5737 5736 5735 5735 5737 5734
5815 5805 5792 5787 5783 5780 5778 5775 5773 5770 5768 5765 5763 5760 5757 5754 5752 5750 5749 5747 5746 5744 5743 5742 5741 5740 5739 5739 5738 5738 5738 5737 5737 5737 5737 5736 5736 5734 5733 5732 5732 5734 5731
5811 5801 5790 5785 5781 5777 5774 5772 5770 5767 5764 5762 5759 5756 5754 5751 5749 5747 5745 5744 5743 5741 5740 5739 5738 5736 5736 5735 5735 5734 5734 5734 5734 5734 5734 5738 5737 5733 5731 5730 5729 5728 5727
5806 5797 5789 5782 5778 5774 5771 5768 5766 5763 5761 5758 5755 5753 5750 5748 5745 5744 5742 5741 5739 5738 5737 5735 5734 5733 5732 5732 5731 5731 5731 5731 5730 5731 5734 5738 5737 5732 5729 5727 5727 5725 5724
5801 5794 5786 5779 5774 5771 5767 5765 5762 5759 5757 5754 5752 5749 5747 5744 5742 5740 5739 5737 5736 5735 5733 5732 5731 5730 5729 5728 5728 5728 5727 5727 5727 5728 5734 5734 5733 5729 5726 5725 5724 5723 5722
5797 5791 5783 5775 5771 5767 5764 5761 5758 5755 5753 5750 5748 5745 5743 5741 5739 5737 5736 5735 5733 5732 5731 5729 5728 5727 5726 5725 5725 5724 5724 5725 5725 5731 5732 5731 5730 5726 5724 5723 5722 5721 5720
5793 5788 5780 5772 5768 5764 5760 5757 5754 5752 5750 5747 5744 5742 5739 5738 5736 5734 5733 5731 5730 5728 5727 5726 5725 5724 5723 5722 5722 5721 5721 5722 5724 5731 5730 5729 5727 5724 5721 5720 5720 5719 5718
5790 5785 5776 5767 5764 5760 5757 5754 5751 5748 5746 5743 5741 5738 5736 5734 5732 5730 5729 5728 5726 5725 5724 5722 5721 5721 5720 5719 5719 5718 5718 5718 5723 5728 5727 5726 5723 5720 5718 5718 5717 5716 5715
5787 5782 5774 5767 5761 5756 5753 5750 5747 5745 5742 5739 5737 5735 5732 5730 5728 5727 5725 5724 5722 5721 5720 5719 5718 5717 5717 5716 5716 5715 5715 5716 5719 5724 5725 5723 5720 5717 5715 5715 5715 5714 5713
5782 5779 5773 5768 5762 5757 5752 5747 5744 5741 5738 5736 5733 5731 5729 5727 5725 5724 5722 5720 5719 5717 5716 5715 5714 5713 5713 5712 5712 5712 5712 5713 5718 5722 5721 5720 5716 5713 5712 5712 5712 5711 5711
5776 5774 5771 5767 5762 5757 5753 5746 5741 5738 5735 5732 5731 5728 5726 5727 5726 5723 5721 5717 5715 5714 5712 5711 5710 5709 5709 5710 5709 5709 5709 5714 5717 5717 5716 5714 5711 5710 5709 5709 5708 5708 5708
5768 5768 5767 5764 5759 5755 5752 5745 5741 5738 5735 5732 5732 5728 5726 5726 5724 5722 5717 5714 5712 5711 5709 5708 5707 5707 5707 5710 5709 5706 5709 5711 5712 5712 5711 5708 5706 5705 5705 5705 5705 5705 5705
5766 5763 5762 5759 5756 5752 5748 5744 5740 5737 5733 5731 5729 5726 5723 5722 5720 5718 5716 5713 5711 5709 5709 5707 5707 5707 5707 5705 5705 5705 5705 5706 5707 5707 5706 5703 5701 5700 5701 5701 5701 5702 5702
5763 5760 5758 5755 5751 5747 5744 5741 5738 5735 5732 5730 5725 5722 5720 5718 5716 5715 5712 5711 5709 5708 5705 5704 5703 5702 5700 5700 5699 5699 5699 5699 5700 5700 5699 5697 5696 5695 5696 5697 5697 5698 5699
5759 5756 5754 5751 5747 5743 5739 5736 5735 5731 5729 5725 5722 5718 5715 5714 5712 5711 5708 5705 5706 5703 5701 5698 5698 5696 5695 5695 5694 5694 5693 5692 5692 5692 5692 5691 5690 5690 5691 5692 5693 5694 5695
5756 5753 5751 5747 5743 5739 5735 5731 5729 5727 5723 5721 5718 5714 5711 5709 5707 5705 5704 5701 5700 5698 5695 5693 5692 5691 5690 5689 5688 5687 5686 5686 5685 5684 5685 5686 5685 5685 5686 5686 5688 5689 5690
5752 5750 5746 5744 5740 5735 5732 5729 5726 5723 5720 5717 5713 5709 5706 5704 5702 5700 5699 5697 5694 5691 5689 5687 5686 5686 5685 5684 5683 5682 5681 5680 5680 5678 5679 5679 5681 5681 5681 5681 5682 5683 5685
5749 5745 5742 5741 5736 5731 5727 5724 5721 5719 5715 5712 5708 5705 5702 5699 5696 5695 5693 5691 5687 5686 5684 5683 5682 5681 5679 5678 5677 5677 5676 5674 5673 5672 5673 5674 5674 5675 5676 5676 5676 5677 5679
5745 5741 5738 5735 5731 5728 5723 5719 5716 5712 5709 5707 5703 5700 5697 5694 5691 5689 5687 5684 5681 5680 5679 5677 5676 5674 5672 5670 5670 5670 5670 5670 5668 5668 5667 5667 5667 5667 5669 5670 5671 5672 5673
5741 5737 5733 5729 5726 5723 5719 5714 5711 5707 5704 5701 5698 5695 5692 5689 5686 5684 5682 5678 5676 5675 5672 5670 5667 5666 5664 5663 5664 5665 5665 5665 5664 5663 5661 5661 5660 5661 5663 5664 5666 5668 5668
5736 5731 5728 5724 5720 5717 5714 5710 5706 5703 5700 5697 5694 5689 5687 5683 5680 5678 5677 5672 5670 5669 5666 5664 5662 5660 5659 5657 5657 5658 5661 5661 5659 5656 5655 5654 5655 5654 5655 5656 5659 5661 5664
5731 5727 5723 5719 5716 5713 5710 5707 5703 5699 5695 5693 5689 5684 5681 5678 5675 5673 5669 5668 5665 5662 5660 5657 5654 5653 5653 5651 5648 5648 5650 5652 5651 5651 5648 5647 5647 5647 5648 5650 5651 5653 5656
5726 5723 5721 5716 5713 5709 5706 5703 5698 5693 5690 5687 5683 5680 5677 5673 5670 5667 5664 5662 5659 5658 5655 5652 5649 5646 5645 5644 5642 5639 5637 5639 5640 5643 5640 5639 5637 5638 5641 5643 5644 5647 5649
5721 5719 5716 5712 5708 5704 5701 5698 5694 5689 5686 5683 5679 5676 5672 5668 5665 5662 5659 5656 5654 5653 5649 5648 5646 5641 5638 5638 5636 5633 5630 5628 5626 5629 5632 5632 5631 5631 5633 5635 5638 5640 5642
5717 5714 5711 5706 5703 5700 5697 5694 5689 5685 5682 5678 5673 5670 5667 5664 5660 5657 5654 5651 5649 5647 5644 5641 5638 5635 5634 5632 5631 5628 5626 5624 5622 5619 5621 5622 5624 5625 5626 5628 5630 5633 5635
5712 5709 5705 5700 5696 5693 5691 5687 5683 5680 5675 5671 5667 5664 5662 5660 5656 5653 5649 5646 5644 5642 5639 5636 5633 5631 5628 5625 5624 5623 5621 5619 5617 5616 5615 5615 5616 5618 5618 5620 5623 5625 5628